Regional Weather Roundup
Issued by NWS

Home | Current Version | Previous Version | Text Only | Print | Product List | Glossary On
Versions: 1 2 3 4 5 6 7 8 9 10 11 12 13 14 15 16 17 18 19 20 21 22 23 24 25 26 27 28 29 30 31 32 33 34 35 36 37 38 39 40 41 42 43 44 45 46 47 48 49 50
000
ASUS45 KTFX 021304
RWRMT
MONTANA HOURLY WEATHER ROUNDUP
NATIONAL WEATHER SERVICE GREAT FALLS MT
604 AM MST MON MAR 2 2015

NOTE: "FAIR" INDICATES FEW OR NO CLOUDS BELOW 12000 FEET WITH NO
SIGNIFICANT WEATHER AND/OR OBSTRUCTIONS TO VISIBILITY.

* THESE STATIONS ARE NOT UNDER NWS QUALITY CONTROL. THEY DO NOT
   REPORT WEATHER SUCH AS PRECIPITATION OR FOG.

MTZ001>007-043-021400-
WEST OF THE DIVIDE
CITY           SKY/WX    TMP DP  RH WIND       PRES   REMARKS
KALISPELL      MOCLDY    16  12  84 CALM      29.89F
MISSOULA       PTCLDY    18  10  71 CALM      29.92S
BUTTE          FAIR       9   3  76 S3        29.84F
MULLAN PASS    PTCLDY    21   3  45 S5        29.77F WCI  14
* ANACONDA     CLEAR     14   5  67 S7         N/A   WCI   4
* ESSEX        N/A       12   7  80 N/A        N/A
* LINCOLN      N/A        5   1  83 N/A        N/A
* LOOKOUT PASS N/A       18   8  65 S2         N/A
* POLSON       N/A       23   9  55 N/A        N/A
* RONAN APT    MOCLDY    23  18  81 N/A        N/A
* SEELEY LAKE  N/A        2  -2  83 N/A        N/A
* THOMP F APT  PTCLDY    19  -4  36 N4         N/A
$$

MTZ008-052>055-021400-
SOUTHWEST MONTANA
CITY           SKY/WX    TMP DP  RH WIND       PRES   REMARKS
BOZEMAN        CLEAR     10   3  73 CALM      29.87F
DILLON         PTCLDY    16   1  51 SW8       29.84F WCI   5
* W YELLOWSTON CLEAR    -10 -17  71 N/A        N/A
* THREE FORKS  PTCLDY     9   5  84 N/A        N/A
* BOULDER HILL N/A       18   1  47 S7         N/A   WCI   9
* MONIDA PASS  N/A        6  -5  60 SW4        N/A
* RAYNOLDS PAS N/A        7  -9  47 SE2        N/A
* WHITEHALL    N/A        9   0  66 NW2G7      N/A
* WISE RIVER   N/A        5  -1  76 W4         N/A
$$

MTZ009>010-012-014-046-048-049-054-021400-
EAST SLOPES AND CENTRAL MONTANA
CITY           SKY/WX    TMP DP  RH WIND       PRES   REMARKS
CUT BANK       PTCLDY    23  12  63 NW15      29.81R WCI  10
GREAT FALLS    CLOUDY    27  10  49 SW10      29.79R WCI  18
HELENA         MOCLDY    18  10  71 CALM      29.87F
* DEARBORN     N/A       27  10  49 S13        N/A   WCI  16
* EAST GLACIER N/A       24   5  44 NW1        N/A
* MONARCH      N/A       26  -2  29 SW12G20    N/A   WCI  15
* PENDROY      N/A       24  10  55 NW2        N/A
* ROGERS PASS  N/A       21   3  45 W3G8       N/A
* SWEET GRASS  N/A       25  14  63 NW17G22    N/A   WCI  12
$$

MTZ011-013-016-021-035-040-045-047-050-051-021400-
NORTH CENTRAL MONTANA
CITY           SKY/WX    TMP DP  RH WIND       PRES   REMARKS
HAVRE          CLEAR     10   7  88 NW3       29.80S
LEWISTOWN      CLEAR     25   9  50 N5        29.78S WCI  19
* CHESTER      N/A       10   5  80 N2         N/A
* DENTON       N/A       21   7  55 S8         N/A   WCI  11
* GEYSER       N/A       26   5  40 W9G14      N/A   WCI  17
* JUDITH GAP   N/A       11   7  84 S8         N/A   WCI  -1
* LOMA         N/A       16  12  84 W2         N/A
$$

MTZ017>020-022>027-061-062-021400-
NORTHEAST MONTANA
CITY           SKY/WX    TMP DP  RH WIND       PRES   REMARKS
GLASGOW        PTCLDY    16   9  74 SE15      29.84F WCI   1
GLENDIVE       CLEAR     10   7  88 S8        29.94F WCI  -2
JORDAN         CLEAR     16   9  74 E6        29.84F WCI   7
SIDNEY         PTCLDY    12   3  67 S5        30.00F WCI   4
WOLF POINT     PTCLDY    18   9  68 CALM      29.92F
* BEAVER HILL  N/A       16   7  67 SE27G34    N/A   WCI  -3
* CIRCLE       N/A       14   8  77 E1         N/A
* LINDSAY DVD  N/A       11   6  80 SE11G17    N/A   WCI  -3
* NAVAJO       N/A       11   6  80 S5G10      N/A   WCI   2
* SACO         N/A       17  11  77 E7         N/A   WCI   7
$$

MTZ028>042-056>058-021400-
SOUTHCENTRAL AND SOUTHEAST MONTANA
CITY           SKY/WX    TMP DP  RH WIND       PRES   REMARKS
BAKER          CLEAR     12   5  73 SE17      29.95F WCI  -5
BILLINGS       CLEAR     21   9  60 SW12      29.85F WCI   9
LIVINGSTON     CLEAR     28   5  37 W17G24    29.82F WCI  16
MILES CITY     CLEAR     12   7  80 S15       29.92F WCI  -4
* LAUREL APT   CLEAR     19   3  49 N/A        N/A
* ROUNDUP APT  CLEAR     16   3  56 S5         N/A   WCI   8
* ALZADA       N/A        6   2  83 E6         N/A   WCI  -5
* HYSHAM       N/A       18   4  54 W5         N/A   WCI  11
* LAME DEER    N/A       15   9  77 S7         N/A   WCI   5
* REED POINT   N/A        7   5  91 E1         N/A
* ROSCOE HILL  N/A       20  -4  34 S4         N/A
$$

REGIONAL REPORTS...DAKOTAS
CITY           SKY/WX    TMP DP  RH WIND       PRES   REMARKS
WILLISTON      MOCLDY    12   5  73 S3        30.01F
DICKINSON      PTCLDY    12   7  80 S15       30.01F WCI  -4
CROSBY         CLEAR      7   3  83 S12       30.00F WCI  -9
WATFORD CITY   CLEAR     14   7  73 S13       29.99F
BISMARCK       PTCLDY     9   7  91 S12       30.21F WCI  -6
GRAND FORKS    MOCLDY     0  -6  75 S5        30.30F WCI -11
FARGO          PTCLDY     3   0  87 S7        30.37S WCI  -9
BUFFALO SD     PTCLDY    12   7  80 S9        29.92F
RAPID CITY     PTCLDY    16   9  74 S16       30.01F WCI   1
$$

REGIONAL REPORTS...WYOMING/IDAHO/WASHINGTON
CITY           SKY/WX    TMP DP  RH WIND       PRES   REMARKS
GILLETTE       PTCLDY    16  10  77 S16       29.89S WCI   1
SHERIDAN       PTCLDY     3   0  87 S6        29.88R WCI  -8
CODY           CLEAR     10  10 100 SE3       29.84F
YELLOWSTONE LA PTCLDY   -11 -17  74 CALM      29.87F
SALMON         CLEAR     16  10  77 CALM      29.90F
MULLAN PASS    PTCLDY    21   3  45 S5        29.77S WCI  14
SAND POINT     MOCLDY    23  18  81 CALM      29.92S
SPOKANE        CLOUDY    28  18  66 NE3       29.88S
$$

REGIONAL REPORTS...ALBERTA
CITY           SKY/WX    TMP DP  RH WIND       PRES   REMARKS
MEDICINE HAT   MOCLDY    23  18  81 W14       29.78R WCI  10

$$



USA.gov is the U.S. government's official web portal to all federal, state and local government web resources and services.